Regional Weather Roundup
Issued by NWS

Home | Current Version | Previous Version | Text Only | Print | Product List | Glossary Off
Versions: 1 2 3 4 5 6 7 8 9 10 11 12 13 14 15 16 17 18 19 20 21 22 23 24 25 26 27

000
ASUS45 KTFX 211710
RWRMT
MONTANA REGIONAL WEATHER ROUNDUP
NATIONAL WEATHER SERVICE GREAT FALLS MT
1000 AM MST TUE NOV 21 2017

NOTE: "FAIR" INDICATES FEW OR NO CLOUDS BELOW 12000 FEET WITH NO
SIGNIFICANT WEATHER AND/OR OBSTRUCTIONS TO VISIBILITY.

MTZ001>007-043-211800-
WEST OF THE DIVIDE

CITY           SKY/WX    TMP DP  RH WIND       PRES   REMARKS
KALISPELL      FAIR      36  35  96 CALM      30.21R
MISSOULA       FOG       30  30 100 CALM      30.26R VSB<1/4
BUTTE          FAIR      25  20  81 CALM      30.23R
MULLAN PASS    FAIR      29  26  89 S8        30.15R WCI  21
ANACONDA         N/A     36  25  64 SE14      30.21S WCI  27
DEER LODGE       N/A     30  27  86 CALM      30.23F
EUREKA           N/A     43  36  75 MISG      30.20R
HAMILTON         N/A     37  30  75 S6        30.25R
LIBBY            N/A     34  34 100 CALM      30.22S VSB 1/2
PLAINS           N/A     34  31  89 MISG      30.23R VSB 0
RONAN            N/A     37  34  89 CALM      30.24R
$$

MTZ008-052>055-211800-
SOUTHWEST MONTANA

CITY           SKY/WX    TMP DP  RH WIND       PRES   REMARKS
BOZEMAN        FAIR      28  26  92 CALM      30.24S
DILLON         FAIR      37  30  75 S7        30.24R WCI  32
W YELLOWSTONE  CLOUDY    30  32 100 SW9       30.31R WCI  22
ENNIS          CLOUDY    37  30  75 S14       30.29R WCI  29
TWIN BRIDGES     N/A     33  27  79 CALM      30.20R
$$

MTZ009-010-012-014-046-048-049-054-211800-
EAST SLOPES AND CENTRAL MONTANA

CITY           SKY/WX    TMP DP  RH WIND       PRES   REMARKS
CUT BANK       CLOUDY    19  18  95 SE10      30.11F WCI   7
GREAT FALLS    FAIR      21  17  84 E7        30.14F WCI  12
HELENA         FAIR      33  30  88 CALM      30.21F
CHOTEAU          N/A     25  23  93 CALM      30.14S
RAYNESFORD     FAIR      26  22  83 E3        30.14F
$$

MTZ011-013-016-021-045-047-050-051-211800-
NORTH CENTRAL MONTANA

CITY           SKY/WX    TMP DP  RH WIND       PRES   REMARKS
HAVRE          CLOUDY    20  10  65 E13       30.25F WCI   7
LEWISTOWN      FAIR      26  22  84 SE5       30.17R
N BAR RANCH    FAIR      27  21  80 W6G13     30.21R WCI  20
CHINOOK          N/A     18   7  62 E8        30.29F WCI   7
GEYSER         FAIR      24  19  83 W6        30.14F WCI  17
STANFORD       FAIR      26  24  93 CALM      30.14F
$$

MTZ017>020-022>027-061-062-211800-
NORTHEAST MONTANA

CITY           SKY/WX    TMP DP  RH WIND       PRES   REMARKS
GLASGOW        FAIR       7  -3  64 CALM      30.38S
JORDAN           N/A     18   5  57 SE7       30.33F WCI   9
SIDNEY         FAIR       9  -1  64 W7        30.43R WCI  -2
WOLF POINT     FAIR       9  -3  58 CALM      30.42S
MALTA          CLOUDY    12   3  67 VRB6      30.37S WCI   3
PLENTYWOOD       N/A      1  -6  71 CALM      30.38R
POPLAR           N/A      7  -4  61 W8        30.43S WCI  -6
SCOBEY           N/A      3 -13  47 W6        30.32R WCI  -8
$$

MTZ028>42-056>058-211800-
SOUTHCENTRAL AND SOUTHEAST MONTANA

CITY           SKY/WX    TMP DP  RH WIND       PRES   REMARKS
BAKER          FAIR      14   3  61 NW13      30.34S WCI   0
BILLINGS       FAIR      27  25  92 S12       30.27S WCI  17
LIVINGSTON     FOG       29  29 100 NW17      30.21F VSB 1/4 WCI  17
MILES CITY     CLOUDY    20   8  60 CALM      30.35F
BIG TIMBER     FOG       27  27 100 E5        30.24F VSB 1/2
EKALAKA          N/A     18   4  54 W7        30.24R WCI   9
FORSYTH          N/A     21  18  86 E6        30.33F WCI  14
LAUREL           N/A     28  25  86 SW8       30.28S WCI  20
$$

REGIONAL REPORTS...DAKOTAS

CITY           SKY/WX    TMP DP  RH WIND       PRES   REMARKS
WILLISTON      CLOUDY     6  -2  69 W10       30.41R WCI  -9
MINOT          CLOUDY    10   2  69 NW15G24   30.35R WCI  -7
DICKINSON      FAIR      11   0  61 W16       30.32S WCI  -6
BEACH          FAIR      10  -2  56 NW10G17   30.37F WCI  -3
CROSBY         PTSUNNY    7   0  72 NW14      30.37S WCI -10
TIOGA          FAIR       7   0  72 NW15G22   30.35S WCI -11
WATFORD CITY   CLOUDY     7  -2  66 W12       30.39R WCI  -9
BISMARCK       FLURRIES  19   7  59 NW20G28   30.40R WCI   3
GRAND FORKS    FAIR      18  10  71 NW16      30.27R WCI   3
FARGO          FAIR      20   8  60 N21G32    30.27R WCI   4
BUFFALO SD       N/A     19   4  51 NW14      30.26R WCI   6
RAPID CITY     CLOUDY    26  18  71 NE7       30.33R WCI  18
$$

REGIONAL REPORTS...WYOMING/IDAHO/WASHINGTON

CITY           SKY/WX    TMP DP  RH WIND       PRES   REMARKS
GILLETTE       PTSUNNY   29  22  75 W7        30.31R WCI  22
SHERIDAN       FAIR      30  27  88 SE9       30.28F WCI  22
BUFFALO WY     CLOUDY    28  24  85 S15       30.27S WCI  16
CODY           FAIR      37  31  78 SW7       30.25F WCI  32
YELLOWSTONE LA   N/A     31  26  82 CALM      30.32R
IDAHO FALLS    CLOUDY    36  35  96 N6        30.33S FOG     WCI  31
SALMON         CLOUDY    36  34  93 CALM      30.33R FOG
BOISE          PTSUNNY   49  44  83 E3        30.28R
SPOKANE        FOG       35  35 100 NE6       30.17F VSB 1/8 WCI  30
$$

REGIONAL REPORTS...ALBERTA

CITY           SKY/WX    TMP DP  RH WIND       PRES   REMARKS
EDMONTON       PTSUNNY    0  -8  71 E3        30.22F
CALGARY        CLOUDY    10   7  85 S9        30.10R WCI  -2
LETHBRIDGE     PTSUNNY   16  12  86 S3        30.11F
MEDICINE HAT   MOSUNNY   12   5  73 NE8       30.26R WCI   1
$$

REGIONAL REPORTS...SASKATCHEWAN

CITY           SKY/WX    TMP DP  RH WIND       PRES   REMARKS
SWIFT CURRENT  SUNNY      0  -8  71 VRB3      30.27F
REGINA         FLURRIES   1  -4  78 W12       30.36R WCI -15
SASKATOON      CLOUDY     3  -2  78 W8        30.37S WCI -10
$$




USA.gov is the U.S. government's official web portal to all federal, state and local government web resources and services.